Location: Agadir Mansour Mhndou
(31.2424°N, 8.7730°W)
Time: 06:07:58
(UTC+00:00)

Cosmos 2263 Rocket - Pass Details

Date: 16 October 2021
Orbit: 825 x 847 km, 71.0° (Epoch: 28 November)

Event Time Altitude Azimuth Distance (km) Brightness Sun altitude
Rises 20:49:15 0° 330° (NNW) 3,364 5.8 -36.4°
Reaches altitude 10° 20:51:48 10° 324° (NW) 2,427 5.1 -36.9°
Enters shadow 20:54:49 29° 302° (WNW) 1,481 3.8 -37.5°
